Warning: Javascript must be enabled to use all the features on this page!


Page Loading - Please Wait...

* We've detected you're using a mobile device. Find our Next Generation Station Page here.
Click to hideNews Bulletins

Peak Streamflow for the Nation

USGS 11261500 SAN JOAQUIN R A FREMONT FORD BRIDGE CA

Merced County, California
Hydrologic Unit Code 18040001
Latitude  37°18'36", Longitude 120°55'48" NAD27
Drainage area 7,615  square miles
Gage datum 72.37 feet above NAVD88
Output formats
Table
Graph
Tab-separated file
peakfq (watstore) format
Reselect output format
Water
Year
Date Gage
Height
(feet)
Stream-
flow
(cfs)
1937 1937-02-18   4,8401,5
1938 1938-03-05   6,5001,5
1939 1939-02-13   1,7701,5
1940 1940-03-06   4,1601,5
1941 1941-03-08   4,9401,5
1942 1942-06-25   4,2801,5
1943 1943-03-20   4,6401,5
1944 1944-03-07   2,3401,5
1945 1945-02-12 68.60 4,1405
1946 1945-12-29 67.57 3,4405
1947 1947-01-02 64.65 1,9205
1948 1948-04-13 61.51 7185
1949 1949-03-08 61.05 5675
1950 1950-02-09 63.80 1,5605
1951 1951-01-24 68.81 3,3605
1952 1952-03-25 69.67 4,4705
1953 1953-01-18 64.54 1,6305
1954 1954-02-17 65.59 2,1905
1955 1955-01-21 63.12 1,1805
1956 1956-01-30 69.86 4,4205
1957 1957-03-07 65.01 1,9905
1958 1958-04-06 71.14 5,9105
1959 1959-04-28 62.28 7605
1960 1960-02-12 59.50 1,1605
1961 1961-01-28 56.25 3065
1962 1962-02-18 64.91 3,8005
1963 1963-02-16 62.04 2,1605
1964 1964-06-13 56.33 3435
1965 1965-01-10 64.62 3,1205
1966 1966-01-03 62.01 2,2105
1967 1967-04-27 66.73 5,3805
1968 1968-03-19 57.15 4745
1969 1969-02-26 68.05 9,1805
1970 1970-01-19 64.41 3,2905
1986 1986-03-18 67.651 18,1001,6
1987 1987-03-08 60.49 1,4106
1988 1988-04-26 57.68 5576
1989 1989-03-28 58.03 6436
2002 2002-01-05 64.75 2,1706
2003 2002-12-22 62.43 8556
2004 2004-02-29 65.61 2,2406
2005 2005-06-02 69.02 4,1606
2006 2006-04-08 71.60 23,0006
2007 2007-03-02 62.39 7816
2008 2008-01-26 64.90 1,9306
2009 2009-03-07 61.77 6026
2010 2010-03-06 65.30 1,6606
2011 2011-03-29 70.47 15,1006
2012 2012-04-15 63.30 1,1106
2013 2012-12-29 63.68 1,2806
2014 2013-11-25 59.32 1746
2015 2014-12-16 60.48 3036
2016 2016-03-16 66.57 1,9806
2017 2017-02-14 71.52 20,8006
2018 2018-03-25 67.09 2,6706
2019 2019-06-01 69.12 6,4706
?
  Peak Gage-Height Qualification Codes.
?
  Peak Streamflow Qualification Codes.